Annette Island, AK

11:57 AM AKST on December 17, 2017 (GMT -0900)
Annette Island

Weather History for PANT - March, 2014

Change the Weather History Date:

Thursday, March 27, 2014

  Actual Average Record
Temperature  
Mean Temperature 38 °F 41 °F  
Max Temperature 46 °F 47 °F 56 °F (2015)
Min Temperature 30 °F 36 °F 28 °F (1965)
Degree Days  
Heating Degree Days 27 24  
Month to date heating degree days 795 690  
Since 1 July heating degree days 5284 5228  
Cooling Degree Days 0    
Month to date cooling degree days 0  
Year to date cooling degree days 0  
Moisture  
Dew Point 21 °F    
Average Humidity 0    
Maximum Humidity 0    
Minimum Humidity 0    
Precipitation  
Precipitation 0.00 in 0.26 in 2.00 in (1981)
Month to date precipitation 8.10 6.99  
Year to date precipitation 20.20 25.03  
Snow  
Snow 0.00 in 0.20 in 3.90 in (1967)
Month to date snowfall 0.3 6.3  
Since 1 July snowfall 25.4 32.8  
Snow Depth 0.00 in    
Sea Level Pressure  
Sea Level Pressure 29.74 in    
Wind  
Wind Speed 4 mph (NNE)    
Max Wind Speed 12 mph    
Max Gust Speed 17 mph    
Visibility 10 miles    
Events      
T = Trace of Precipitation, MM = Missing Value Source: NWS Daily Summary

Daily Weather History Graph

Daily Weather History Graph

Search for Another Location

Airport or City:

Trip Planner

Search our weather history database for the weather conditions in past years. The results will help you decide how hot, cold, wet, or windy it might be!

Date:

Astronomy

Mar. 27, 2014 Rise Set
Actual Time 6:30 AM AKDT 7:14 PM AKDT
Civil Twilight 5:53 AM AKDT 7:50 PM AKDT
Nautical Twilight 5:09 AM AKDT 8:35 PM AKDT
Astronomical Twilight 4:22 AM AKDT 9:22 PM AKDT
Moon 4:57 AM AKDT (3/27) 3:42 PM AKDT (3/27)
Length of Visible Light 13h 57m
Length of Day
12h 43m
Waning Crescent, 12% of the Moon is Illuminated
Mar 27
Waning Crescent
Mar 30
New
Apr 7
First Quarter
Apr 14
Full
Apr 21
Last Quarter

Hourly Weather History & Observations

Time (AKDT) Temp. Windchill Dew Point Humidity Pressure Visibility Wind Dir Wind Speed Gust Speed Precip Events Conditions
12:53 AM 35.1 °F - 21.0 °F 57% 29.71 in 10.0 mi Calm Calm - N/A   Mostly Cloudy
1:53 AM 34.0 °F 31.0 °F 18.0 °F 52% 29.72 in 10.0 mi NE 3.5 mph - N/A   Clear
2:53 AM 30.9 °F 27.5 °F 21.9 °F 69% 29.72 in 10.0 mi North 3.5 mph - N/A   Mostly Cloudy
3:53 AM 33.1 °F - 19.9 °F 59% 29.73 in 10.0 mi Calm Calm - N/A   Partly Cloudy
4:53 AM 34.0 °F 31.0 °F 19.0 °F 54% 29.73 in 10.0 mi North 3.5 mph - N/A   Mostly Cloudy
5:53 AM 34.0 °F - 18.0 °F 52% 29.73 in 10.0 mi Calm Calm - N/A   Overcast
6:53 AM 35.1 °F 32.2 °F 19.0 °F 52% 29.73 in 10.0 mi NE 3.5 mph - N/A   Overcast
7:53 AM 37.0 °F 32.4 °F 18.0 °F 46% 29.73 in 10.0 mi ENE 5.8 mph - N/A   Overcast
8:53 AM 37.9 °F - 18.0 °F 45% 29.73 in 10.0 mi Calm Calm - N/A   Overcast
9:53 AM 39.0 °F 35.7 °F 19.0 °F 45% 29.74 in 10.0 mi East 4.6 mph - N/A   Overcast
10:53 AM 41.0 °F 37.1 °F 19.0 °F 41% 29.75 in 10.0 mi ENE 5.8 mph - N/A   Mostly Cloudy
11:53 AM 43.0 °F - 19.9 °F 40% 29.76 in 10.0 mi Calm Calm - N/A   Overcast
12:53 PM 43.0 °F 38.8 °F 21.0 °F 42% 29.76 in 10.0 mi Variable 6.9 mph - N/A   Overcast
1:53 PM 43.0 °F 38.8 °F 21.9 °F 43% 29.76 in 10.0 mi NW 6.9 mph - N/A   Overcast
2:53 PM 44.1 °F 41.5 °F 21.0 °F 40% 29.76 in 10.0 mi ESE 4.6 mph 17.3 mph N/A   Overcast
3:53 PM 43.0 °F 41.3 °F 25.0 °F 49% 29.76 in 10.0 mi Variable 3.5 mph - N/A   Overcast
4:53 PM 42.1 °F 39.2 °F 26.1 °F 53% 29.76 in 10.0 mi West 4.6 mph - N/A   Overcast
5:53 PM 41.0 °F 38.0 °F 26.1 °F 55% 29.75 in 10.0 mi NW 4.6 mph - N/A   Overcast
6:53 PM 39.9 °F 36.7 °F 27.0 °F 60% 29.75 in 10.0 mi NW 4.6 mph - N/A   Overcast
7:53 PM 37.9 °F - 28.9 °F 70% 29.75 in 10.0 mi Calm Calm - N/A   Overcast
8:53 PM 39.0 °F 36.8 °F 27.0 °F 62% 29.75 in 10.0 mi NE 3.5 mph - N/A   Overcast
9:53 PM 39.9 °F 36.7 °F 19.9 °F 45% 29.75 in 10.0 mi Variable 4.6 mph - N/A   Mostly Cloudy
10:53 PM 39.0 °F 34.0 °F 19.9 °F 46% 29.75 in 10.0 mi ENE 6.9 mph - N/A   Mostly Cloudy
11:53 PM 39.0 °F 35.7 °F 19.9 °F 46% 29.74 in 10.0 mi Variable 4.6 mph - N/A   Overcast